Home > Weather > Elbląg > Past weeks

Flag for Poland Past Weather in Elbląg, Poland — Yesterday and Last 2 Weeks

Now
72 °F

Overcast.


Feels Like: 73 °F
Forecast: 60 / 76 °F
Wind: 2 mph from Northeast

Location: Hel

Current Time: Jul 28, 2016 at 2:25:51 PM

Latest Report: Jul 28, 2016 at 1:00 PM


Visibility: 16 mi

Pressure: 29.95 "Hg

Humidity: 79%

Dew Point: 65 °F

Location of ElblągLocation

Past Weather in Elbląg — Graph

°F

Elbląg Temperature Yesterday

Maximum temperature yesterday: 73 °F (at 2:00 PM)
Minimum temperature yesterday: 65 °F (at 4:00 AM)
Average temperature yesterday: 69 °F

High & Low Weather Summary for the Past Weeks

 TemperatureHumidityPressure
High77 °F (Jul 26, 1:00 PM)99% (Jul 21, 7:00 AM)30.18 "Hg (Jul 21, 7:00 AM)
Low56 °F (Jul 16, 11:00 PM)41% (Jul 21, 2:00 PM)29.54 "Hg (Jul 15, 12:00 AM)
Average65 °F83%30.03 "Hg
* Reported Jul 13 1:00 PM — Jul 28 1:00 PM, Elbląg, Weather by CustomWeather, © 2016

Note: Actual official high and low records may vary slightly from our data, if they occured in-between our weather recording intervals... More about our weather records

Advertising

Elbląg Weather History for the Previous 24 Hours

Scroll right to see more
 ConditionsComfort  
Time TempWeatherWind HumidityBarometerVisibility
1:00 PM
Thu, Jul 28
72 °FOvercast.2 mph79%29.95 "Hg16 mi
12:00 PM72 °FPartly sunny.3 mph79%29.94 "Hg16 mi
11:00 AM70 °FOvercast.3 mph82%29.94 "Hg12 mi
10:00 AM69 °FLow clouds.1 mph88%29.93 "Hg12 mi
9:00 AM69 °FOvercast.2 mph91%29.92 "Hg12 mi
8:00 AM68 °FOvercast.1 mph93%29.92 "Hg12 mi
7:00 AM67 °FOvercast.2 mph95%29.91 "Hg12 mi
6:00 AM66 °FFog.3 mph96%29.92 "Hg6 mi
5:00 AM66 °FFog.3 mph97%29.92 "Hg6 mi
4:00 AM66 °FOvercast.3 mph97%29.91 "Hg5 mi
3:00 AM66 °FSprinkles. Overcast.3 mph95%29.92 "Hg4 mi
2:00 AM68 °FSprinkles. Overcast.3 mph93%29.94 "Hg6 mi
1:00 AM68 °FSprinkles. Overcast.3 mph89%29.94 "Hg12 mi
12:00 AM68 °FOvercast.3 mph83%29.95 "Hg12 mi
11:00 PM
Wed, Jul 27
68 °FPassing clouds.5 mph85%29.96 "Hg16 mi
10:00 PM68 °FPassing clouds.5 mph84%29.99 "Hg16 mi
9:00 PM68 °FPassing clouds.3 mph82%29.98 "Hg16 mi
8:00 PM69 °FScattered clouds.5 mph79%29.98 "Hg16 mi
7:00 PM71 °FPassing clouds.5 mph76%29.99 "Hg16 mi
6:00 PM72 °FPassing clouds.5 mph70%30.01 "Hg16 mi
5:00 PM73 °FPassing clouds.5 mph67%30.02 "Hg16 mi
4:00 PM73 °FScattered clouds.5 mph66%30.04 "Hg16 mi
3:00 PM72 °FPassing clouds.3 mph69%30.06 "Hg16 mi
2:00 PM73 °FPassing clouds.5 mph65%30.07 "Hg19 mi
Weather by CustomWeather, © 2016

See weather overviewHow to use our weather pages